Total_Precipitation_Accumulation
0.35 0.21 0.23 0.22 0.19 0.20 0.22 0.26 0.27 0.27 0.25 0.21 0.20 0.19 0.17 0.14 0.13 0.11 0.11 0.12 0.16 0.22 0.27 0.28 0.31 0.36 0.40 0.34 0.27 0.23 0.24 0.28 0.34 0.39 0.46 0.53 0.56 0.64 0.77 0.78 0.83 0.80 0.73
0.42 0.24 0.24 0.23 0.23 0.23 0.21 0.24 0.26 0.26 0.25 0.21 0.18 0.17 0.17 0.14 0.13 0.13 0.14 0.15 0.18 0.21 0.21 0.23 0.27 0.29 0.28 0.23 0.20 0.19 0.20 0.24 0.37 0.53 0.69 0.73 0.77 0.80 0.91 0.98 1.11 1.12 0.83
0.55 0.39 0.28 0.25 0.22 0.23 0.22 0.24 0.24 0.24 0.26 0.24 0.18 0.16 0.16 0.13 0.12 0.13 0.14 0.16 0.21 0.23 0.22 0.21 0.21 0.20 0.20 0.19 0.18 0.20 0.24 0.32 0.54 0.82 1.21 1.45 1.23 1.11 1.09 1.07 1.05 0.92 0.90
0.51 0.50 0.36 0.32 0.27 0.23 0.24 0.26 0.28 0.24 0.23 0.22 0.19 0.17 0.15 0.14 0.14 0.15 0.17 0.19 0.25 0.28 0.27 0.23 0.21 0.18 0.19 0.19 0.20 0.23 0.30 0.42 0.71 1.05 1.76 1.90 1.83 1.74 1.29 1.06 0.96 0.91 1.04
0.45 0.44 0.42 0.35 0.31 0.28 0.27 0.30 0.31 0.31 0.26 0.24 0.23 0.21 0.21 0.19 0.19 0.22 0.26 0.29 0.31 0.32 0.33 0.31 0.28 0.26 0.23 0.21 0.23 0.27 0.35 0.51 0.89 1.28 1.79 2.29 2.63 2.20 1.62 1.26 1.06 1.02 1.14
0.46 0.45 0.42 0.40 0.39 0.39 0.38 0.38 0.37 0.35 0.31 0.30 0.29 0.27 0.25 0.26 0.27 0.31 0.38 0.43 0.42 0.40 0.43 0.43 0.40 0.34 0.28 0.26 0.28 0.33 0.44 0.64 0.91 1.29 1.83 2.50 2.44 2.10 1.78 1.54 1.32 1.24 1.23
0.50 0.55 0.44 0.47 0.47 0.48 0.50 0.48 0.46 0.42 0.40 0.39 0.39 0.34 0.32 0.33 0.35 0.39 0.46 0.49 0.49 0.50 0.51 0.48 0.40 0.33 0.29 0.30 0.33 0.38 0.52 0.72 0.91 1.47 1.94 2.34 2.17 1.90 1.82 1.71 1.61 1.50 1.39
0.52 0.51 0.51 0.50 0.54 0.54 0.59 0.64 0.63 0.56 0.52 0.51 0.50 0.45 0.39 0.38 0.40 0.45 0.50 0.51 0.51 0.49 0.47 0.45 0.42 0.38 0.36 0.36 0.37 0.46 0.58 0.63 0.72 1.26 1.79 2.00 1.70 1.70 1.86 1.73 1.64 1.54 1.44
0.63 0.63 0.69 0.72 0.74 0.77 0.79 0.79 0.79 0.72 0.67 0.63 0.58 0.50 0.44 0.43 0.45 0.49 0.56 0.59 0.58 0.51 0.47 0.45 0.44 0.40 0.39 0.38 0.38 0.44 0.53 0.64 0.71 1.04 1.60 2.01 1.55 1.66 1.92 1.80 1.63 1.57 1.49
1.04 1.05 1.09 1.08 1.00 0.90 0.86 0.90 0.88 0.81 0.74 0.68 0.59 0.53 0.53 0.55 0.59 0.68 0.62 0.62 0.62 0.59 0.56 0.55 0.49 0.42 0.43 0.41 0.42 0.47 0.56 0.58 0.60 0.97 1.53 1.63 1.54 1.86 2.10 1.91 1.69 1.64 1.50
1.66 1.64 1.53 1.46 1.27 1.25 1.16 0.97 1.02 0.94 0.85 0.78 0.74 0.69 0.70 0.78 0.95 1.01 0.83 0.86 0.81 0.78 0.75 0.76 0.72 0.67 0.60 0.53 0.56 0.62 0.64 0.57 0.76 1.14 1.73 1.79 1.98 2.18 2.35 2.19 1.91 1.78 1.67
2.14 2.06 1.79 1.80 1.77 1.62 1.48 1.41 1.38 1.21 1.14 1.04 1.12 1.03 1.10 1.41 1.53 1.33 1.31 1.21 1.18 1.11 1.00 0.99 0.97 0.85 0.76 0.74 0.85 0.89 0.68 0.69 0.87 1.17 1.49 1.77 2.05 2.32 2.43 2.25 2.01 1.88 1.90
2.12 1.98 2.07 2.22 2.11 2.12 2.19 2.09 1.88 1.79 1.70 1.50 1.58 1.51 1.61 1.63 1.53 1.53 1.64 1.58 1.49 1.40 1.42 1.46 1.28 1.08 1.11 1.17 1.18 1.07 0.91 0.95 1.00 1.16 1.45 1.70 1.96 2.39 2.56 2.35 2.14 2.09 2.11
2.35 2.14 2.23 2.24 2.23 2.35 2.41 2.44 2.40 2.32 2.25 2.11 2.06 1.82 1.95 2.02 2.03 2.01 2.13 2.12 2.10 2.10 2.12 2.02 1.82 1.64 1.50 1.48 1.43 1.40 1.25 1.21 1.32 1.51 1.68 1.71 1.85 2.23 2.54 2.54 2.33 2.22 2.17
3.00 2.73 2.59 2.68 2.55 2.51 2.69 2.80 2.57 2.64 2.59 2.71 2.66 2.34 2.37 2.40 2.39 2.56 2.54 2.62 2.54 2.69 2.61 2.41 2.16 2.04 1.92 1.67 1.57 1.58 1.57 1.54 1.57 1.64 1.81 1.89 1.90 2.13 2.48 2.71 2.63 2.49 2.51
3.47 3.26 2.97 2.89 2.90 2.78 2.92 3.14 3.00 2.82 2.88 2.91 3.02 2.80 2.76 2.82 2.86 2.89 2.91 2.96 2.77 2.75 2.79 2.69 2.40 2.28 2.15 1.92 1.66 1.58 1.59 1.76 1.79 1.70 1.87 2.01 1.96 1.99 2.31 2.73 2.95 3.06 3.14
3.66 3.38 3.29 3.09 3.30 3.43 3.63 3.57 3.52 3.49 3.46 3.36 3.31 3.32 3.20 3.18 3.26 3.18 3.29 3.34 3.16 3.06 3.03 2.97 2.82 2.57 2.41 2.28 2.12 1.96 1.82 1.82 1.95 2.04 2.06 2.18 2.25 2.21 2.34 2.60 2.89 3.10 3.25
3.59 3.56 3.64 3.42 3.47 3.69 3.71 3.66 3.76 3.94 3.97 3.83 3.70 3.72 3.59 3.60 3.70 3.81 3.66 3.47 3.36 3.28 3.27 3.38 3.18 2.85 2.74 2.74 2.61 2.26 1.96 2.02 2.10 2.15 2.16 2.26 2.46 2.39 2.43 2.42 2.55 2.80 3.06
3.49 3.46 3.64 3.81 3.63 3.79 3.89 3.95 4.11 4.25 4.39 4.30 4.19 4.08 4.02 4.00 3.96 4.09 4.00 3.81 3.62 3.53 3.54 3.30 3.27 3.16 3.13 3.02 2.63 2.39 2.08 2.02 2.09 2.07 2.12 2.21 2.43 2.56 2.59 2.38 2.45 2.76 2.97
3.53 3.58 3.68 4.00 3.99 4.24 4.31 4.14 4.24 4.29 4.40 4.48 4.52 4.46 4.50 4.51 4.41 4.36 4.20 4.06 3.95 3.81 3.74 3.59 3.54 3.46 3.27 3.11 2.66 2.41 2.21 2.02 2.01 2.05 2.05 2.11 2.17 2.22 2.33 2.37 2.42 2.35 2.58
3.77 3.86 3.83 3.95 4.19 4.37 4.52 4.46 4.59 4.57 4.51 4.71 4.90 4.89 4.98 5.04 4.88 4.81 4.68 4.55 4.28 4.02 3.90 3.76 3.60 3.46 3.20 3.08 2.92 2.62 2.22 1.95 1.97 1.96 1.89 1.97 2.02 1.99 2.06 2.15 2.34 2.29 2.20
3.92 4.02 4.17 4.29 4.30 4.43 4.89 5.28 5.57 5.86 5.87 5.78 5.88 5.90 5.71 5.55 5.47 5.32 5.25 5.01 4.63 4.35 4.05 3.79 3.61 3.34 3.07 3.04 3.04 3.08 2.65 2.25 1.84 1.60 1.65 1.70 1.70 1.71 1.79 1.91 1.98 2.04 2.00
3.67 3.90 4.06 4.34 4.69 5.17 5.75 6.15 6.44 6.73 6.81 6.57 6.32 6.17 5.94 5.71 5.57 5.24 5.02 4.89 4.61 4.17 3.89 3.72 3.53 3.30 3.06 2.96 2.92 3.12 2.91 2.51 2.09 1.81 1.61 1.50 1.53 1.64 1.68 1.78 1.83 1.78 1.72
3.26 3.59 3.96 4.30 4.93 5.81 6.44 6.83 7.17 7.26 7.18 7.01 6.78 6.37 5.85 5.48 5.18 4.88 4.63 4.35 4.08 3.73 3.48 3.29 3.21 3.16 3.06 2.88 2.83 2.66 2.46 2.33 2.32 2.08 1.82 1.67 1.62 1.63 1.58 1.52 1.56 1.62 1.65
3.02 3.38 3.81 4.20 4.89 5.59 6.22 6.75 7.15 7.28 7.20 6.97 6.51 5.96 5.33 4.86 4.46 4.12 3.87 3.63 3.39 3.10 2.87 2.68 2.65 2.75 2.80 2.72 2.69 2.64 2.52 2.41 2.31 2.16 2.01 1.94 1.88 1.75 1.60 1.51 1.49 1.50 1.49
2.65 2.99 3.43 3.85 4.39 5.00 5.45 6.00 6.31 6.46 6.33 5.93 5.41 4.79 4.36 4.03 3.73 3.40 3.11 2.90 2.65 2.41 2.26 2.17 2.12 2.16 2.30 2.37 2.43 2.43 2.41 2.49 2.45 2.39 2.24 2.13 2.07 1.91 1.75 1.62 1.54 1.51 1.46